カタログに戻る

GALILEO 32 (137)

運用中ナビゲーションMEO
NORAD 61182·PAYLOAD·🇪🇺 EU

打ち上げ Sep 17, 2024 から Cape Canaveral Space Force Station

Loading…

次のパス (今後24時間)

TLE

最新Source: CelesTrak SupGP

元期: Sep 13, 2026, 23:59 UTC

1 61182C 24167A   26256.99979167  .00000000  00000+0  00000+0 0  2560
2 61182  55.1653 218.8785 0005522 236.1893 238.8692  1.70473698    14

AllMySatでGALILEO 32 (137)をリアルタイム追跡

Download on the App Store